Year,Month,Day,Hour,Minute,Value (Times are PST for temperature in C)
2021,07,30,00,00,21.50
2021,07,30,00,01,21.50
2021,07,30,00,02,21.50
2021,07,30,00,03,21.40
2021,07,30,00,04,21.40
2021,07,30,00,05,21.40
2021,07,30,00,06,21.30
2021,07,30,00,07,21.30
2021,07,30,00,08,21.30
2021,07,30,00,09,21.30
2021,07,30,00,10,21.30
2021,07,30,00,11,21.30
2021,07,30,00,12,21.30
2021,07,30,00,13,21.20
2021,07,30,00,14,21.20
2021,07,30,00,15,21.20
2021,07,30,00,16,21.20
2021,07,30,00,17,21.10
2021,07,30,00,18,21.10
2021,07,30,00,19,21.10
2021,07,30,00,20,21.00
2021,07,30,00,21,21.00
2021,07,30,00,22,21.00
2021,07,30,00,23,20.90
2021,07,30,00,24,20.90
2021,07,30,00,25,20.90
2021,07,30,00,26,20.90
2021,07,30,00,27,20.90
2021,07,30,00,28,20.90
2021,07,30,00,29,20.80
2021,07,30,00,30,20.80
2021,07,30,00,31,20.80
2021,07,30,00,32,20.70
2021,07,30,00,33,20.70
2021,07,30,00,34,20.70
2021,07,30,00,35,20.60
2021,07,30,00,36,20.60
2021,07,30,00,37,20.50
2021,07,30,00,38,20.50
2021,07,30,00,39,20.40
2021,07,30,00,40,20.40
2021,07,30,00,41,20.40
2021,07,30,00,42,20.30
2021,07,30,00,43,20.30
2021,07,30,00,44,20.30
2021,07,30,00,45,20.30
2021,07,30,00,46,20.20
2021,07,30,00,47,20.20
2021,07,30,00,48,20.20
2021,07,30,00,49,20.10
2021,07,30,00,50,20.10
2021,07,30,00,51,20.10
2021,07,30,00,52,20.10
2021,07,30,00,53,20.00
2021,07,30,00,54,20.00
2021,07,30,00,55,20.00
2021,07,30,00,56,20.00
2021,07,30,00,57,19.90
2021,07,30,00,58,19.90
2021,07,30,00,59,19.90
2021,07,30,01,00,19.90
2021,07,30,01,01,19.90
2021,07,30,01,02,19.90
2021,07,30,01,03,19.90
2021,07,30,01,04,19.90
2021,07,30,01,05,19.90
2021,07,30,01,06,19.90
2021,07,30,01,07,19.90
2021,07,30,01,08,19.90
2021,07,30,01,09,19.90
2021,07,30,01,10,19.80
2021,07,30,01,11,19.80
2021,07,30,01,12,19.90
2021,07,30,01,13,20.00
2021,07,30,01,14,20.10
2021,07,30,01,15,20.10
2021,07,30,01,16,20.10
2021,07,30,01,17,20.20
2021,07,30,01,18,20.20
2021,07,30,01,19,20.20
2021,07,30,01,20,20.20
2021,07,30,01,21,20.10
2021,07,30,01,22,20.10
2021,07,30,01,23,20.00
2021,07,30,01,24,19.90
2021,07,30,01,25,19.80
2021,07,30,01,26,19.80
2021,07,30,01,27,19.80
2021,07,30,01,28,19.70
2021,07,30,01,29,19.70
2021,07,30,01,30,19.70
2021,07,30,01,31,19.60
2021,07,30,01,32,19.60
2021,07,30,01,33,19.60
2021,07,30,01,34,19.60
2021,07,30,01,35,19.50
2021,07,30,01,36,19.50
2021,07,30,01,37,19.50
2021,07,30,01,38,19.40
2021,07,30,01,39,19.40
2021,07,30,01,40,19.40
2021,07,30,01,41,19.40
2021,07,30,01,42,19.40
2021,07,30,01,43,19.30
2021,07,30,01,44,19.30
2021,07,30,01,45,19.30
2021,07,30,01,46,19.30
2021,07,30,01,47,19.20
2021,07,30,01,48,19.20
2021,07,30,01,49,19.20
2021,07,30,01,50,19.20
2021,07,30,01,51,19.20
2021,07,30,01,52,19.20
2021,07,30,01,53,19.20
2021,07,30,01,54,19.20
2021,07,30,01,55,19.20
2021,07,30,01,56,19.20
2021,07,30,01,57,19.10
2021,07,30,01,58,19.10
2021,07,30,01,59,19.10
2021,07,30,02,00,19.10
2021,07,30,02,01,19.10
2021,07,30,02,02,19.00
2021,07,30,02,03,19.00
2021,07,30,02,04,19.00
2021,07,30,02,05,19.00
2021,07,30,02,06,19.00
2021,07,30,02,07,19.00
2021,07,30,02,08,19.00
2021,07,30,02,09,19.00
2021,07,30,02,10,19.00
2021,07,30,02,11,19.00
2021,07,30,02,12,18.90
2021,07,30,02,13,18.90
2021,07,30,02,14,18.90
2021,07,30,02,15,18.90
2021,07,30,02,16,18.90
2021,07,30,02,17,18.90
2021,07,30,02,18,18.90
2021,07,30,02,19,18.90
2021,07,30,02,20,18.90
2021,07,30,02,21,18.90
2021,07,30,02,22,18.90
2021,07,30,02,23,18.90
2021,07,30,02,24,18.90
2021,07,30,02,25,18.90
2021,07,30,02,26,18.90
2021,07,30,02,27,18.90
2021,07,30,02,28,18.80
2021,07,30,02,29,18.80
2021,07,30,02,30,18.80
2021,07,30,02,31,18.80
2021,07,30,02,32,18.80
2021,07,30,02,33,18.80
2021,07,30,02,34,18.70
2021,07,30,02,35,18.70
2021,07,30,02,36,18.70
2021,07,30,02,37,18.70
2021,07,30,02,38,18.60
2021,07,30,02,39,18.60
2021,07,30,02,40,18.60
2021,07,30,02,41,18.60
2021,07,30,02,42,18.60
2021,07,30,02,43,18.60
2021,07,30,02,44,18.60
2021,07,30,02,45,18.60
2021,07,30,02,46,18.50
2021,07,30,02,47,18.50
2021,07,30,02,48,18.50
2021,07,30,02,49,18.50
2021,07,30,02,50,18.50
2021,07,30,02,51,18.40
2021,07,30,02,52,18.40
2021,07,30,02,53,18.40
2021,07,30,02,54,18.40
2021,07,30,02,55,18.40
2021,07,30,02,56,18.30
2021,07,30,02,57,18.30
2021,07,30,02,58,18.30
2021,07,30,02,59,18.20
2021,07,30,03,00,18.20
2021,07,30,03,01,18.20
2021,07,30,03,02,18.20
2021,07,30,03,03,18.20
2021,07,30,03,04,18.10
2021,07,30,03,05,18.10
2021,07,30,03,06,18.10
2021,07,30,03,07,18.10
2021,07,30,03,08,18.10
2021,07,30,03,09,18.10
2021,07,30,03,10,18.10
2021,07,30,03,11,18.10
2021,07,30,03,12,18.00
2021,07,30,03,13,18.00
2021,07,30,03,14,18.00
2021,07,30,03,15,18.00
2021,07,30,03,16,18.00
2021,07,30,03,17,17.90
2021,07,30,03,18,17.90
2021,07,30,03,19,17.90
2021,07,30,03,20,17.90
2021,07,30,03,21,17.90
2021,07,30,03,22,17.90
2021,07,30,03,23,17.90
2021,07,30,03,24,17.90
2021,07,30,03,25,17.90
2021,07,30,03,26,17.80
2021,07,30,03,27,17.80
2021,07,30,03,28,17.80
2021,07,30,03,29,17.80
2021,07,30,03,30,17.70
2021,07,30,03,31,17.70
2021,07,30,03,32,17.70
2021,07,30,03,33,17.70
2021,07,30,03,34,17.70
2021,07,30,03,35,17.70
2021,07,30,03,36,17.70
2021,07,30,03,37,17.70
2021,07,30,03,38,17.70
2021,07,30,03,39,17.60
2021,07,30,03,40,17.60
2021,07,30,03,41,17.60
2021,07,30,03,42,17.60
2021,07,30,03,43,17.60
2021,07,30,03,44,17.60
2021,07,30,03,45,17.50
2021,07,30,03,46,17.50
2021,07,30,03,47,17.50
2021,07,30,03,48,17.40
2021,07,30,03,49,17.40
2021,07,30,03,50,17.40
2021,07,30,03,51,17.40
2021,07,30,03,52,17.40
2021,07,30,03,53,17.40
2021,07,30,03,54,17.40
2021,07,30,03,55,17.40
2021,07,30,03,56,17.40
2021,07,30,03,57,17.40
2021,07,30,03,58,17.40
2021,07,30,03,59,17.40
2021,07,30,04,00,17.40
2021,07,30,04,01,17.30
2021,07,30,04,02,17.30
2021,07,30,04,03,17.30
2021,07,30,04,04,17.20
2021,07,30,04,05,17.20
2021,07,30,04,06,17.20
2021,07,30,04,07,17.10
2021,07,30,04,08,17.10
2021,07,30,04,09,17.10
2021,07,30,04,10,17.10
2021,07,30,04,11,17.10
2021,07,30,04,12,17.10
2021,07,30,04,13,17.00
2021,07,30,04,14,17.00
2021,07,30,04,15,17.00
2021,07,30,04,16,17.00
2021,07,30,04,17,16.90
2021,07,30,04,18,16.90
2021,07,30,04,19,16.90
2021,07,30,04,20,16.90
2021,07,30,04,21,16.90
2021,07,30,04,22,16.90
2021,07,30,04,23,16.90
2021,07,30,04,24,16.80
2021,07,30,04,25,16.80
2021,07,30,04,26,16.80
2021,07,30,04,27,16.80
2021,07,30,04,28,16.80
2021,07,30,04,29,16.80
2021,07,30,04,30,16.70
2021,07,30,04,31,16.70
2021,07,30,04,32,16.70
2021,07,30,04,33,16.70
2021,07,30,04,34,16.70
2021,07,30,04,35,16.60
2021,07,30,04,36,16.60
2021,07,30,04,37,16.60
2021,07,30,04,38,16.60
2021,07,30,04,39,16.50
2021,07,30,04,40,16.50
2021,07,30,04,41,16.50
2021,07,30,04,42,16.40
2021,07,30,04,43,16.40
2021,07,30,04,44,16.40
2021,07,30,04,45,16.40
2021,07,30,04,46,16.30
2021,07,30,04,47,16.30
2021,07,30,04,48,16.30
2021,07,30,04,49,16.30
2021,07,30,04,50,16.30
2021,07,30,04,51,16.30
2021,07,30,04,52,16.30
2021,07,30,04,53,16.30
2021,07,30,04,54,16.20
2021,07,30,04,55,16.20
2021,07,30,04,56,16.20
2021,07,30,04,57,16.20
2021,07,30,04,58,16.20
2021,07,30,04,59,16.20
2021,07,30,05,00,16.20
2021,07,30,05,01,16.20
2021,07,30,05,02,16.20
2021,07,30,05,03,16.20
2021,07,30,05,04,16.20
2021,07,30,05,05,16.20
2021,07,30,05,06,16.20
2021,07,30,05,07,16.20
2021,07,30,05,08,16.20
2021,07,30,05,09,16.20
2021,07,30,05,10,16.20
2021,07,30,05,11,16.20
2021,07,30,05,12,16.10
2021,07,30,05,13,16.10
2021,07,30,05,14,16.10
2021,07,30,05,15,16.10
2021,07,30,05,16,16.10
2021,07,30,05,17,16.10
2021,07,30,05,18,16.00
2021,07,30,05,19,16.00
2021,07,30,05,20,16.00
2021,07,30,05,21,16.00
2021,07,30,05,22,16.00
2021,07,30,05,23,16.00
2021,07,30,05,24,16.00
2021,07,30,05,25,16.00
2021,07,30,05,26,16.00
2021,07,30,05,27,16.00
2021,07,30,05,28,16.00
2021,07,30,05,29,16.00
2021,07,30,05,30,16.10
2021,07,30,05,31,16.10
2021,07,30,05,32,16.10
2021,07,30,05,33,16.10
2021,07,30,05,34,16.00
2021,07,30,05,35,16.00
2021,07,30,05,36,16.00
2021,07,30,05,37,16.00
2021,07,30,05,38,16.00
2021,07,30,05,39,16.00
2021,07,30,05,40,16.00
2021,07,30,05,41,16.00
2021,07,30,05,42,15.90
2021,07,30,05,43,15.90
2021,07,30,05,44,15.90
2021,07,30,05,45,15.90
2021,07,30,05,46,15.90
2021,07,30,05,47,15.90
2021,07,30,05,48,15.90
2021,07,30,05,49,15.90
2021,07,30,05,50,15.90
2021,07,30,05,51,15.80
2021,07,30,05,52,15.80
2021,07,30,05,53,15.80
2021,07,30,05,54,15.80
2021,07,30,05,55,15.80
2021,07,30,05,56,15.80
2021,07,30,05,57,15.80
2021,07,30,05,58,15.80
2021,07,30,05,59,15.80
2021,07,30,06,00,15.80
2021,07,30,06,01,15.80
2021,07,30,06,02,15.80
2021,07,30,06,03,15.80
2021,07,30,06,04,15.80
2021,07,30,06,05,15.80
2021,07,30,06,06,15.80
2021,07,30,06,07,15.80
2021,07,30,06,08,15.80
2021,07,30,06,09,15.80
2021,07,30,06,10,15.80
2021,07,30,06,11,15.80
2021,07,30,06,12,15.80
2021,07,30,06,13,15.80
2021,07,30,06,14,15.80
2021,07,30,06,15,15.80
2021,07,30,06,16,15.80
2021,07,30,06,17,15.80
2021,07,30,06,18,15.80
2021,07,30,06,19,15.80
2021,07,30,06,20,15.80
2021,07,30,06,21,15.90
2021,07,30,06,22,15.90
2021,07,30,06,23,15.90
2021,07,30,06,24,15.90
2021,07,30,06,25,15.90
2021,07,30,06,26,15.90
2021,07,30,06,27,15.90
2021,07,30,06,28,15.90
2021,07,30,06,29,15.90
2021,07,30,06,30,15.90
2021,07,30,06,31,15.90
2021,07,30,06,32,15.90
2021,07,30,06,33,15.90
2021,07,30,06,34,15.90
2021,07,30,06,35,15.90
2021,07,30,06,36,15.90
2021,07,30,06,37,15.90
2021,07,30,06,38,15.90
2021,07,30,06,39,15.90
2021,07,30,06,40,15.90
2021,07,30,06,41,15.90
2021,07,30,06,42,15.90
2021,07,30,06,43,15.90
2021,07,30,06,44,16.00
2021,07,30,06,45,16.00
2021,07,30,06,46,16.10
2021,07,30,06,47,16.10
2021,07,30,06,48,16.10
2021,07,30,06,49,16.10
2021,07,30,06,50,16.20
2021,07,30,06,51,16.20
2021,07,30,06,52,16.20
2021,07,30,06,53,16.20
2021,07,30,06,54,16.20
2021,07,30,06,55,16.30
2021,07,30,06,56,16.30
2021,07,30,06,57,16.30
2021,07,30,06,58,16.30
2021,07,30,06,59,16.40
2021,07,30,07,00,16.40
2021,07,30,07,01,16.40
2021,07,30,07,02,16.50
2021,07,30,07,03,16.50
2021,07,30,07,04,16.50
2021,07,30,07,05,16.60
2021,07,30,07,06,16.60
2021,07,30,07,07,16.70
2021,07,30,07,08,16.70
2021,07,30,07,09,16.70
2021,07,30,07,10,16.80
2021,07,30,07,11,16.80
2021,07,30,07,12,16.80
2021,07,30,07,13,16.90
2021,07,30,07,14,16.90
2021,07,30,07,15,16.90
2021,07,30,07,16,17.00
2021,07,30,07,17,17.10
2021,07,30,07,18,17.10
2021,07,30,07,19,17.20
2021,07,30,07,20,17.20
2021,07,30,07,21,17.30
2021,07,30,07,22,17.30
2021,07,30,07,23,17.40
2021,07,30,07,24,17.50
2021,07,30,07,25,17.60
2021,07,30,07,26,17.70
2021,07,30,07,27,17.80
2021,07,30,07,28,17.80
2021,07,30,07,29,17.90
2021,07,30,07,30,18.00
2021,07,30,07,31,18.10
2021,07,30,07,32,18.10
2021,07,30,07,33,18.20
2021,07,30,07,34,18.30
2021,07,30,07,35,18.30
2021,07,30,07,36,18.40
2021,07,30,07,37,18.50
2021,07,30,07,38,18.50
2021,07,30,07,39,18.60
2021,07,30,07,40,18.70
2021,07,30,07,41,18.70
2021,07,30,07,42,18.80
2021,07,30,07,43,18.90
2021,07,30,07,44,18.90
2021,07,30,07,45,19.00
2021,07,30,07,46,19.10
2021,07,30,07,47,19.10
2021,07,30,07,48,19.20
2021,07,30,07,49,19.30
2021,07,30,07,50,19.30
2021,07,30,07,51,19.40
2021,07,30,07,52,19.40
2021,07,30,07,53,19.50
2021,07,30,07,54,19.60
2021,07,30,07,55,19.60
2021,07,30,07,56,19.60
2021,07,30,07,57,19.70
2021,07,30,07,58,19.70
2021,07,30,07,59,19.80
2021,07,30,08,00,19.80
2021,07,30,08,01,19.80
2021,07,30,08,02,19.90
2021,07,30,08,03,20.00
2021,07,30,08,04,20.00
2021,07,30,08,05,20.10
2021,07,30,08,06,20.10
2021,07,30,08,07,20.20
2021,07,30,08,08,20.20
2021,07,30,08,09,20.20
2021,07,30,08,10,20.30
2021,07,30,08,11,20.30
2021,07,30,08,12,20.30
2021,07,30,08,13,20.30
2021,07,30,08,14,20.30
2021,07,30,08,15,20.40
2021,07,30,08,16,20.40
2021,07,30,08,17,20.40
2021,07,30,08,18,20.40
2021,07,30,08,19,20.40
2021,07,30,08,20,20.40
2021,07,30,08,21,20.50
2021,07,30,08,22,20.50
2021,07,30,08,23,20.60
2021,07,30,08,24,20.60
2021,07,30,08,25,20.70
2021,07,30,08,26,20.70
2021,07,30,08,27,20.70
2021,07,30,08,28,20.70
2021,07,30,08,29,20.80
2021,07,30,08,30,20.80
2021,07,30,08,31,20.80
2021,07,30,08,32,20.90
2021,07,30,08,33,20.90
2021,07,30,08,34,20.90
2021,07,30,08,35,20.90
2021,07,30,08,36,20.90
2021,07,30,08,37,20.90
2021,07,30,08,38,20.90
2021,07,30,08,39,20.90
2021,07,30,08,40,21.00
2021,07,30,08,41,21.00
2021,07,30,08,42,21.10
2021,07,30,08,43,21.10
2021,07,30,08,44,21.20
2021,07,30,08,45,21.30
2021,07,30,08,46,21.30
2021,07,30,08,47,21.40
2021,07,30,08,48,21.40
2021,07,30,08,49,21.50
2021,07,30,08,50,21.60
2021,07,30,08,51,21.60
2021,07,30,08,52,21.70
2021,07,30,08,53,21.80
2021,07,30,08,54,21.80
2021,07,30,08,55,21.80
2021,07,30,08,56,21.80
2021,07,30,08,57,21.90
2021,07,30,08,58,21.90
2021,07,30,08,59,21.90
2021,07,30,09,00,22.00
2021,07,30,09,01,22.00
2021,07,30,09,02,22.10
2021,07,30,09,03,22.20
2021,07,30,09,04,22.30
2021,07,30,09,05,22.30
2021,07,30,09,06,22.30
2021,07,30,09,07,22.40
2021,07,30,09,08,22.40
2021,07,30,09,09,22.40
2021,07,30,09,10,22.40
2021,07,30,09,11,22.40
2021,07,30,09,12,22.40
2021,07,30,09,13,22.40
2021,07,30,09,14,22.50
2021,07,30,09,15,22.50
2021,07,30,09,16,22.50
2021,07,30,09,17,22.60
2021,07,30,09,18,22.60
2021,07,30,09,19,22.60
2021,07,30,09,20,22.60
2021,07,30,09,21,22.70
2021,07,30,09,22,22.70
2021,07,30,09,23,22.80
2021,07,30,09,24,22.80
2021,07,30,09,25,22.80
2021,07,30,09,26,22.80
2021,07,30,09,27,22.90
2021,07,30,09,28,22.90
2021,07,30,09,29,22.90
2021,07,30,09,30,22.90
2021,07,30,09,31,23.00
2021,07,30,09,32,23.00
2021,07,30,09,33,23.10
2021,07,30,09,34,23.10
2021,07,30,09,35,23.20
2021,07,30,09,36,23.20
2021,07,30,09,37,23.30
2021,07,30,09,38,23.40
2021,07,30,09,39,23.50
2021,07,30,09,40,23.50
2021,07,30,09,41,23.60
2021,07,30,09,42,23.70
2021,07,30,09,43,23.70
2021,07,30,09,44,23.80
2021,07,30,09,45,23.90
2021,07,30,09,46,23.90
2021,07,30,09,47,24.00
2021,07,30,09,48,24.10
2021,07,30,09,49,24.10
2021,07,30,09,50,24.10
2021,07,30,09,51,24.20
2021,07,30,09,52,24.20
2021,07,30,09,53,24.20
2021,07,30,09,54,24.30
2021,07,30,09,55,24.30
2021,07,30,09,56,24.30
2021,07,30,09,57,24.30
2021,07,30,09,58,24.30
2021,07,30,09,59,24.30
2021,07,30,10,00,24.30
2021,07,30,10,01,24.40
2021,07,30,10,02,24.40
2021,07,30,10,03,24.40
2021,07,30,10,04,24.40
2021,07,30,10,05,24.40
2021,07,30,10,06,24.40
2021,07,30,10,07,24.40
2021,07,30,10,08,24.50
2021,07,30,10,09,24.50
2021,07,30,10,10,24.50
2021,07,30,10,11,24.60
2021,07,30,10,12,24.60
2021,07,30,10,13,24.60
2021,07,30,10,14,24.70
2021,07,30,10,15,24.70
2021,07,30,10,16,24.80
2021,07,30,10,17,24.80
2021,07,30,10,18,24.90
2021,07,30,10,19,24.90
2021,07,30,10,20,24.90
2021,07,30,10,21,25.00
2021,07,30,10,22,25.00
2021,07,30,10,23,25.10
2021,07,30,10,24,25.00
2021,07,30,10,25,25.00
2021,07,30,10,26,25.00
2021,07,30,10,27,24.90
2021,07,30,10,28,24.90
2021,07,30,10,29,25.00
2021,07,30,10,30,25.00
2021,07,30,10,31,25.00
2021,07,30,10,32,25.10
2021,07,30,10,33,25.10
2021,07,30,10,34,25.10
2021,07,30,10,35,25.20
2021,07,30,10,36,25.30
2021,07,30,10,37,25.40
2021,07,30,10,38,25.50
2021,07,30,10,39,25.50
2021,07,30,10,40,25.60
2021,07,30,10,41,25.70
2021,07,30,10,42,25.70
2021,07,30,10,43,25.80
2021,07,30,10,44,25.80
2021,07,30,10,45,25.80
2021,07,30,10,46,25.80
2021,07,30,10,47,25.80
2021,07,30,10,48,25.80
2021,07,30,10,49,25.80
2021,07,30,10,50,25.90
2021,07,30,10,51,26.00
2021,07,30,10,52,26.00
2021,07,30,10,53,26.00
2021,07,30,10,54,26.10
2021,07,30,10,55,26.10
2021,07,30,10,56,26.10
2021,07,30,10,57,26.10
2021,07,30,10,58,26.20
2021,07,30,10,59,26.30
2021,07,30,11,00,26.30
2021,07,30,11,01,26.40
2021,07,30,11,02,26.30
2021,07,30,11,03,26.30
2021,07,30,11,04,26.30
2021,07,30,11,05,26.30
2021,07,30,11,06,26.40
2021,07,30,11,07,26.40
2021,07,30,11,08,26.40
2021,07,30,11,09,26.50
2021,07,30,11,10,26.50
2021,07,30,11,11,26.50
2021,07,30,11,12,26.50
2021,07,30,11,13,26.50
2021,07,30,11,14,26.60
2021,07,30,11,15,26.60
2021,07,30,11,16,26.60
2021,07,30,11,17,26.60
2021,07,30,11,18,26.60
2021,07,30,11,19,26.70
2021,07,30,11,20,26.70
2021,07,30,11,21,26.70
2021,07,30,11,22,26.80
2021,07,30,11,23,26.90
2021,07,30,11,24,27.00
2021,07,30,11,25,27.00
2021,07,30,11,26,27.10
2021,07,30,11,27,27.10
2021,07,30,11,28,27.10
2021,07,30,11,29,27.10
2021,07,30,11,30,27.10
2021,07,30,11,31,27.20
2021,07,30,11,32,27.30
2021,07,30,11,33,27.40
2021,07,30,11,34,27.40
2021,07,30,11,35,27.40
2021,07,30,11,36,27.40
2021,07,30,11,37,27.40
2021,07,30,11,38,27.50
2021,07,30,11,39,27.60
2021,07,30,11,40,27.70
2021,07,30,11,41,27.80
2021,07,30,11,42,27.90
2021,07,30,11,43,28.00
2021,07,30,11,44,28.10
2021,07,30,11,45,28.10
2021,07,30,11,46,28.20
2021,07,30,11,47,28.20
2021,07,30,11,48,28.20
2021,07,30,11,49,28.20
2021,07,30,11,50,28.10
2021,07,30,11,51,28.10
2021,07,30,11,52,28.10
2021,07,30,11,53,28.10
2021,07,30,11,54,28.20
2021,07,30,11,55,28.30
2021,07,30,11,56,28.30
2021,07,30,11,57,28.30
2021,07,30,11,58,28.30
2021,07,30,11,59,28.30
2021,07,30,12,00,28.30
2021,07,30,12,01,28.30
2021,07,30,12,02,28.30
2021,07,30,12,03,28.30
2021,07,30,12,04,28.40
2021,07,30,12,05,28.40
2021,07,30,12,06,28.40
2021,07,30,12,07,28.40
2021,07,30,12,08,28.40
2021,07,30,12,09,28.40
2021,07,30,12,10,28.30
2021,07,30,12,11,28.30
2021,07,30,12,12,28.20
2021,07,30,12,13,28.10
2021,07,30,12,14,28.10
2021,07,30,12,15,28.10
2021,07,30,12,16,28.10
2021,07,30,12,17,28.00
2021,07,30,12,18,28.00
2021,07,30,12,19,27.90
2021,07,30,12,20,27.80
2021,07,30,12,21,27.80
2021,07,30,12,22,27.90
2021,07,30,12,23,27.90
2021,07,30,12,24,27.90
2021,07,30,12,25,28.00
2021,07,30,12,26,28.00
2021,07,30,12,27,28.00
2021,07,30,12,28,28.10
2021,07,30,12,29,28.10
2021,07,30,12,30,28.10
2021,07,30,12,31,28.10
2021,07,30,12,32,28.10
2021,07,30,12,33,28.00
2021,07,30,12,34,28.00
2021,07,30,12,35,28.00
2021,07,30,12,36,28.00
2021,07,30,12,37,28.10
2021,07,30,12,38,28.10
2021,07,30,12,39,28.10
2021,07,30,12,40,28.10
2021,07,30,12,41,28.10
2021,07,30,12,42,28.20
2021,07,30,12,43,28.20
2021,07,30,12,44,28.30
2021,07,30,12,45,28.30
2021,07,30,12,46,28.20
2021,07,30,12,47,28.20
2021,07,30,12,48,28.10
2021,07,30,12,49,28.10
2021,07,30,12,50,28.10
2021,07,30,12,51,28.10
2021,07,30,12,52,28.10
2021,07,30,12,53,28.10
2021,07,30,12,54,28.10
2021,07,30,12,55,28.00
2021,07,30,12,56,28.00
2021,07,30,12,57,28.00
2021,07,30,12,58,28.00
2021,07,30,12,59,28.00
2021,07,30,13,00,28.00
2021,07,30,13,01,28.00
2021,07,30,13,02,28.00
2021,07,30,13,03,28.00
2021,07,30,13,04,28.00
2021,07,30,13,05,27.90
2021,07,30,13,06,27.90
2021,07,30,13,07,28.00
2021,07,30,13,08,28.10
2021,07,30,13,09,28.20
2021,07,30,13,10,28.20
2021,07,30,13,11,28.30
2021,07,30,13,12,28.30
2021,07,30,13,13,28.30
2021,07,30,13,14,28.30
2021,07,30,13,15,28.30
2021,07,30,13,16,28.30
2021,07,30,13,17,28.30
2021,07,30,13,18,28.30
2021,07,30,13,19,28.30
2021,07,30,13,20,28.30
2021,07,30,13,21,28.30
2021,07,30,13,22,28.30
2021,07,30,13,23,28.30
2021,07,30,13,24,28.30
2021,07,30,13,25,28.30
2021,07,30,13,26,28.20
2021,07,30,13,27,28.20
2021,07,30,13,28,28.20
2021,07,30,13,29,28.20
2021,07,30,13,30,28.20
2021,07,30,13,31,28.20
2021,07,30,13,32,28.20
2021,07,30,13,33,28.20
2021,07,30,13,34,28.30
2021,07,30,13,35,28.30
2021,07,30,13,36,28.30
2021,07,30,13,37,28.40
2021,07,30,13,38,28.50
2021,07,30,13,39,28.50
2021,07,30,13,40,28.60
2021,07,30,13,41,28.70
2021,07,30,13,42,28.70
2021,07,30,13,43,28.80
2021,07,30,13,44,28.90
2021,07,30,13,45,29.00
2021,07,30,13,46,29.10
2021,07,30,13,47,29.20
2021,07,30,13,48,29.30
2021,07,30,13,49,29.40
2021,07,30,13,50,29.50
2021,07,30,13,51,29.50
2021,07,30,13,52,29.50
2021,07,30,13,53,29.40
2021,07,30,13,54,29.40
2021,07,30,13,55,29.40
2021,07,30,13,56,29.40
2021,07,30,13,57,29.40
2021,07,30,13,58,29.40
2021,07,30,13,59,29.40
2021,07,30,14,00,29.40
2021,07,30,14,01,29.40
2021,07,30,14,02,29.40
2021,07,30,14,03,29.30
2021,07,30,14,04,29.20
2021,07,30,14,05,29.10
2021,07,30,14,06,29.10
2021,07,30,14,07,29.10
2021,07,30,14,08,29.10
2021,07,30,14,09,29.00
2021,07,30,14,10,28.90
2021,07,30,14,11,28.90
2021,07,30,14,12,28.80
2021,07,30,14,13,28.70
2021,07,30,14,14,28.70
2021,07,30,14,15,28.60
2021,07,30,14,16,28.60
2021,07,30,14,17,28.60
2021,07,30,14,18,28.60
2021,07,30,14,19,28.60
2021,07,30,14,20,28.60
2021,07,30,14,21,28.60
2021,07,30,14,22,28.60
2021,07,30,14,23,28.60
2021,07,30,14,24,28.70
2021,07,30,14,25,28.80
2021,07,30,14,26,28.80
2021,07,30,14,27,28.90
2021,07,30,14,28,29.00
2021,07,30,14,29,29.10
2021,07,30,14,30,29.20
2021,07,30,14,31,29.20
2021,07,30,14,32,29.20
2021,07,30,14,33,29.20
2021,07,30,14,34,29.10
2021,07,30,14,35,29.10
2021,07,30,14,36,29.10
2021,07,30,14,37,29.10
2021,07,30,14,38,29.20
2021,07,30,14,39,29.20
2021,07,30,14,40,29.30
2021,07,30,14,41,29.40
2021,07,30,14,42,29.40
2021,07,30,14,43,29.40
2021,07,30,14,44,29.30
2021,07,30,14,45,29.20
2021,07,30,14,46,29.10
2021,07,30,14,47,29.10
2021,07,30,14,48,29.10
2021,07,30,14,49,29.10
2021,07,30,14,50,29.20
2021,07,30,14,51,29.20
2021,07,30,14,52,29.20
2021,07,30,14,53,29.20
2021,07,30,14,54,29.20
2021,07,30,14,55,29.20
2021,07,30,14,56,29.30
2021,07,30,14,57,29.40
2021,07,30,14,58,29.50
2021,07,30,14,59,29.50
2021,07,30,15,00,29.60
2021,07,30,15,01,29.70
2021,07,30,15,02,29.80
2021,07,30,15,03,29.80
2021,07,30,15,04,29.90
2021,07,30,15,05,30.00
2021,07,30,15,06,30.00
2021,07,30,15,07,30.00
2021,07,30,15,08,30.00
2021,07,30,15,09,30.00
2021,07,30,15,10,30.00
2021,07,30,15,11,30.10
2021,07,30,15,12,30.10
2021,07,30,15,13,30.20
2021,07,30,15,14,30.30
2021,07,30,15,15,30.30
2021,07,30,15,16,30.40
2021,07,30,15,17,30.40
2021,07,30,15,18,30.50
2021,07,30,15,19,30.50
2021,07,30,15,20,30.60
2021,07,30,15,21,30.60
2021,07,30,15,22,30.70
2021,07,30,15,23,30.70
2021,07,30,15,24,30.80
2021,07,30,15,25,30.80
2021,07,30,15,26,30.80
2021,07,30,15,27,30.90
2021,07,30,15,28,30.90
2021,07,30,15,29,30.90
2021,07,30,15,30,31.00
2021,07,30,15,31,31.10
2021,07,30,15,32,31.10
2021,07,30,15,33,31.20
2021,07,30,15,34,31.20
2021,07,30,15,35,31.30
2021,07,30,15,36,31.30
2021,07,30,15,37,31.30
2021,07,30,15,38,31.40
2021,07,30,15,39,31.40
2021,07,30,15,40,31.40
2021,07,30,15,41,31.40
2021,07,30,15,42,31.40
2021,07,30,15,43,31.40
2021,07,30,15,44,31.30
2021,07,30,15,45,31.30
2021,07,30,15,46,31.30
2021,07,30,15,47,31.30
2021,07,30,15,48,31.30
2021,07,30,15,49,31.20
2021,07,30,15,50,31.30
2021,07,30,15,51,31.30
2021,07,30,15,52,31.30
2021,07,30,15,53,31.20
2021,07,30,15,54,31.20
2021,07,30,15,55,31.10
2021,07,30,15,56,31.10
2021,07,30,15,57,31.00
2021,07,30,15,58,31.00
2021,07,30,15,59,31.00
2021,07,30,16,00,31.00
2021,07,30,16,01,31.10
2021,07,30,16,02,31.10
2021,07,30,16,03,31.20
2021,07,30,16,04,31.30
2021,07,30,16,05,31.40
2021,07,30,16,06,31.50
2021,07,30,16,07,31.60
2021,07,30,16,08,31.70
2021,07,30,16,09,31.70
2021,07,30,16,10,31.70
2021,07,30,16,11,31.80
2021,07,30,16,12,31.90
2021,07,30,16,13,31.90
2021,07,30,16,14,32.00
2021,07,30,16,15,32.10
2021,07,30,16,16,32.20
2021,07,30,16,17,32.30
2021,07,30,16,18,32.30
2021,07,30,16,19,32.40
2021,07,30,16,20,32.40
2021,07,30,16,21,32.50
2021,07,30,16,22,32.50
2021,07,30,16,23,32.60
2021,07,30,16,24,32.50
2021,07,30,16,25,32.50
2021,07,30,16,26,32.50
2021,07,30,16,27,32.40
2021,07,30,16,28,32.40
2021,07,30,16,29,32.40
2021,07,30,16,30,32.40
2021,07,30,16,31,32.40
2021,07,30,16,32,32.40
2021,07,30,16,33,32.40
2021,07,30,16,34,32.40
2021,07,30,16,35,32.40
2021,07,30,16,36,32.40
2021,07,30,16,37,32.40
2021,07,30,16,38,32.40
2021,07,30,16,39,32.40
2021,07,30,16,40,32.50
2021,07,30,16,41,32.50
2021,07,30,16,42,32.50
2021,07,30,16,43,32.60
2021,07,30,16,44,32.70
2021,07,30,16,45,32.70
2021,07,30,16,46,32.80
2021,07,30,16,47,32.90
2021,07,30,16,48,32.90
2021,07,30,16,49,33.00
2021,07,30,16,50,33.10
2021,07,30,16,51,33.10
2021,07,30,16,52,33.10
2021,07,30,16,53,33.10
2021,07,30,16,54,33.20
2021,07,30,16,55,33.30
2021,07,30,16,56,33.30
2021,07,30,16,57,33.40
2021,07,30,16,58,33.50
2021,07,30,16,59,33.60
2021,07,30,17,00,33.70
2021,07,30,17,01,33.70
2021,07,30,17,02,33.80
2021,07,30,17,03,33.80
2021,07,30,17,04,33.90
2021,07,30,17,05,33.90
2021,07,30,17,06,33.90
2021,07,30,17,07,33.90
2021,07,30,17,08,33.90
2021,07,30,17,09,33.90
2021,07,30,17,10,33.90
2021,07,30,17,11,33.90
2021,07,30,17,12,34.00
2021,07,30,17,13,34.00
2021,07,30,17,14,34.10
2021,07,30,17,15,34.20
2021,07,30,17,16,34.30
2021,07,30,17,17,34.30
2021,07,30,17,18,34.40
2021,07,30,17,19,34.40